星链-30815 (STARLINK-30815 )

导读 | 星芒AI

STARLINK-30815 是 SpaceX 星链计划中的一颗低轨通信卫星,属于第 31 批部署的星链卫星群。该卫星于 2023 年发射,运行在约 550 公里的近地轨道,旨在为全球用户提供高速互联网服务。作为星链网络的一部分,它支持宽带通信,提升偏远地区的网络覆盖。星链项目计划部署数万颗卫星,构建全球性卫星互联网系统。STARLINK-30815 的运行有助于增强星链的冗余性和服务稳定性。

基本信息
目录编号:
58164
目录名称:
STARLINK-30815
国际标识:
2023-166Q
轨道中心:
EARTH
卫星名称:
星链-30815
卫星全名:
星链-30815 (STARLINK-30815 )
卫星状态:
在轨 (已飞行782 天)
发射日期:
2023-10-29 UTC
国别 :
美国 (US)
星等 :
--
轨道信息
数据来源 国际轨道数据
星历时间: 2025-12-19T09:23:32+0800
17小时前
查看轨道信息
半长轴: 6853.39km
偏心率: 0.0000925
轨道倾角: 53.160°
近地点辐角 102.419°
升交点赤经 234.186°
平近点角 257.692°
近地点: 474.619km
远地点: 475.887km
周期: 94.106分钟
每日圈数: 15.301875
详细信息
固有亮度:
5
最大亮度:
0.3
卫星平台:
Starlink v2.0 mini
覆盖范围:
全球
运营商:
太空探索技术公司
运营商所在国:
美国
制造商(研发单位):
太空探索技术公司
制造商所在国:
美国
使用方式:
暂无
卫星简介
星链(Starlink)计划是由太空探索技术公司(SpaceX)提出的一个巨型低轨卫星互联网星座项目,计划在2019年至2024年间在太空搭建由约1.2万颗卫星组成的“星链”网络,其中1584颗将部署在地球上空550千米处的近地轨道,并从2020年开始工作。该卫星仍在工作。
2D轨道图
3D轨道图
轨道高度分析图
轨道倾角分析图
轨道综合分析图
查看轨道综合分析图